Time,TemperatureF,DewpointF,PressureIn,WindDirection,WindDirectionDegrees,WindSpeedMPH,WindSpeedGustMPH,Humidity,HourlyPrecipIn,Conditions,Clouds,dailyrainin,SoftwareType,DateUTC
2013-01-30 00:04:00,42.8,35.1,29.10,SW,225,16.0,27.0,74,0.00,,,0.52,meteohub,2013-01-30 00:04:00,
2013-01-30 00:09:00,42.8,35.1,29.10,SW,225,11.0,28.0,74,0.00,,,0.00,meteohub,2013-01-30 00:09:00,
2013-01-30 00:14:00,42.8,35.1,29.10,SW,225,15.0,30.0,74,0.00,,,0.00,meteohub,2013-01-30 00:14:00,
2013-01-30 00:20:00,42.8,34.7,29.10,West,270,14.0,30.0,73,0.00,,,0.00,meteohub,2013-01-30 00:20:00,
2013-01-30 00:25:00,42.8,34.7,29.10,WSW,247,20.0,26.0,73,0.00,,,0.00,meteohub,2013-01-30 00:25:00,
2013-01-30 00:30:00,42.6,34.9,29.10,SW,225,25.0,29.0,74,0.00,,,0.00,meteohub,2013-01-30 00:30:00,
2013-01-30 00:35:00,42.6,34.5,29.10,WSW,247,16.0,29.0,73,0.00,,,0.00,meteohub,2013-01-30 00:35:00,
2013-01-30 00:40:00,42.4,34.3,29.10,WSW,247,19.0,29.0,73,0.00,,,0.00,meteohub,2013-01-30 00:40:00,
2013-01-30 00:45:00,42.4,34.7,29.10,WSW,247,6.0,28.0,74,0.00,,,0.00,meteohub,2013-01-30 00:45:00,
2013-01-30 00:50:00,42.4,34.7,29.10,WSW,247,19.0,23.0,74,0.00,,,0.00,meteohub,2013-01-30 00:50:00,
2013-01-30 00:56:00,42.4,34.7,29.10,WNW,292,11.0,22.0,74,0.00,,,0.00,meteohub,2013-01-30 00:56:00,
2013-01-30 01:01:00,42.4,35.1,29.10,SW,225,13.0,22.0,75,0.00,,,0.00,meteohub,2013-01-30 01:01:00,
2013-01-30 01:06:00,42.4,35.1,29.10,WSW,247,13.0,23.0,75,0.00,,,0.00,meteohub,2013-01-30 01:06:00,
2013-01-30 01:11:00,42.3,34.9,29.10,WSW,247,13.0,26.0,75,0.00,,,0.00,meteohub,2013-01-30 01:11:00,
2013-01-30 01:16:00,42.3,34.5,29.10,WSW,247,20.0,27.0,74,0.00,,,0.00,meteohub,2013-01-30 01:16:00,
2013-01-30 01:21:00,42.3,34.9,29.10,WNW,292,26.0,31.0,75,0.00,,,0.00,meteohub,2013-01-30 01:21:00,
2013-01-30 01:26:00,42.1,34.3,29.10,WSW,247,19.0,31.0,74,0.00,,,0.00,meteohub,2013-01-30 01:26:00,
2013-01-30 01:31:00,42.1,34.3,29.10,SW,225,15.0,31.0,74,0.00,,,0.00,meteohub,2013-01-30 01:31:00,
2013-01-30 01:36:00,41.9,34.5,29.10,SW,225,14.0,27.0,75,0.00,,,0.00,meteohub,2013-01-30 01:36:00,
2013-01-30 01:41:00,41.7,34.3,29.10,SW,225,16.0,27.0,75,0.00,,,0.00,meteohub,2013-01-30 01:41:00,
2013-01-30 01:47:00,41.7,34.7,29.10,WSW,247,27.0,28.0,76,0.00,,,0.00,meteohub,2013-01-30 01:47:00,
2013-01-30 01:52:00,41.7,34.7,29.10,SW,225,24.0,28.0,76,0.00,,,0.00,meteohub,2013-01-30 01:52:00,
2013-01-30 01:57:00,41.7,35.1,29.10,WSW,247,15.0,28.0,77,0.00,,,0.00,meteohub,2013-01-30 01:57:00,
2013-01-30 02:02:00,41.7,35.1,29.10,ESE,112,23.0,27.0,77,0.00,,,0.00,meteohub,2013-01-30 02:02:00,
2013-01-30 02:07:00,41.7,35.1,29.10,WSW,247,15.0,26.0,77,0.00,,,0.00,meteohub,2013-01-30 02:07:00,
2013-01-30 02:12:00,41.5,35.2,29.10,SW,225,10.0,25.0,78,0.00,,,0.00,meteohub,2013-01-30 02:12:00,
2013-01-30 02:17:00,41.5,35.2,29.10,WSW,247,15.0,25.0,78,0.00,,,0.00,meteohub,2013-01-30 02:17:00,
2013-01-30 02:22:00,41.5,35.2,29.10,WSW,247,17.0,25.0,78,0.00,,,0.00,meteohub,2013-01-30 02:22:00,
2013-01-30 02:27:00,41.5,35.6,29.10,WSW,247,24.0,25.0,79,0.00,,,0.00,meteohub,2013-01-30 02:27:00,
2013-01-30 02:32:00,41.5,35.6,29.10,WSW,247,29.0,29.0,79,0.00,,,0.00,meteohub,2013-01-30 02:32:00,
2013-01-30 02:37:00,41.5,35.6,29.10,SW,225,15.0,29.0,79,0.00,,,0.00,meteohub,2013-01-30 02:37:00,
2013-01-30 02:42:00,41.5,35.8,29.10,SW,225,15.0,29.0,80,0.00,,,0.00,meteohub,2013-01-30 02:42:00,
2013-01-30 02:47:00,41.5,35.8,29.10,WSW,247,18.0,29.0,80,0.00,,,0.00,meteohub,2013-01-30 02:47:00,
2013-01-30 02:52:00,41.5,36.1,29.10,WSW,247,17.0,23.0,81,0.00,,,0.00,meteohub,2013-01-30 02:52:00,
2013-01-30 02:57:00,41.7,36.3,29.10,SW,225,20.0,25.0,81,0.00,,,0.00,meteohub,2013-01-30 02:57:00,
2013-01-30 03:02:00,41.7,36.3,29.10,WSW,247,11.0,27.0,81,0.00,,,0.00,meteohub,2013-01-30 03:02:00,
2013-01-30 03:07:00,41.7,36.3,29.10,WSW,247,15.0,27.0,81,0.00,,,0.00,meteohub,2013-01-30 03:07:00,
2013-01-30 03:13:00,41.5,36.1,29.10,WSW,247,15.0,27.0,81,0.00,,,0.00,meteohub,2013-01-30 03:13:00,
2013-01-30 03:18:00,41.5,36.1,29.10,WSW,247,15.0,23.0,81,0.00,,,0.00,meteohub,2013-01-30 03:18:00,
2013-01-30 03:23:00,41.5,36.1,29.10,WSW,247,20.0,23.0,81,0.00,,,0.00,meteohub,2013-01-30 03:23:00,
2013-01-30 03:28:00,41.4,36.0,29.10,WSW,247,10.0,24.0,81,0.00,,,0.00,meteohub,2013-01-30 03:28:00,
2013-01-30 03:33:00,41.4,36.0,29.10,SW,225,15.0,24.0,81,0.00,,,0.00,meteohub,2013-01-30 03:33:00,
2013-01-30 03:38:00,41.2,36.1,29.10,SW,225,10.0,25.0,82,0.00,,,0.00,meteohub,2013-01-30 03:38:00,
2013-01-30 03:43:00,41.2,36.1,29.10,SSW,202,21.0,25.0,82,0.00,,,0.00,meteohub,2013-01-30 03:43:00,
2013-01-30 03:48:00,41.2,36.5,29.10,WSW,247,15.0,25.0,83,0.00,,,0.00,meteohub,2013-01-30 03:48:00,
2013-01-30 03:53:00,41.2,36.5,29.10,WSW,247,15.0,24.0,83,0.00,,,0.00,meteohub,2013-01-30 03:53:00,
2013-01-30 03:58:00,41.2,36.5,29.10,SW,225,24.0,27.0,83,0.00,,,0.00,meteohub,2013-01-30 03:58:00,
2013-01-30 04:03:00,41.0,36.3,29.10,WSW,247,17.0,27.0,83,0.00,,,0.00,meteohub,2013-01-30 04:03:00,
2013-01-30 04:09:00,41.0,36.3,29.10,West,270,13.0,27.0,83,0.00,,,0.00,meteohub,2013-01-30 04:09:00,
2013-01-30 04:14:00,41.0,36.3,29.10,WSW,247,20.0,24.0,83,0.00,,,0.00,meteohub,2013-01-30 04:14:00,
2013-01-30 04:19:00,40.8,36.1,29.07,SW,225,19.0,26.0,83,0.00,,,0.00,meteohub,2013-01-30 04:19:00,
2013-01-30 04:24:00,40.8,36.1,29.07,WSW,247,23.0,27.0,83,0.00,,,0.00,meteohub,2013-01-30 04:24:00,
2013-01-30 04:29:00,40.6,36.1,29.07,West,270,16.0,27.0,84,0.00,,,0.00,meteohub,2013-01-30 04:29:00,
2013-01-30 04:34:00,40.6,36.1,29.10,SW,225,14.0,27.0,84,0.00,,,0.00,meteohub,2013-01-30 04:34:00,
2013-01-30 04:39:00,40.5,36.0,29.10,SW,225,13.0,27.0,84,0.00,,,0.00,meteohub,2013-01-30 04:39:00,
2013-01-30 04:44:00,40.5,36.0,29.10,WSW,247,19.0,27.0,84,0.00,,,0.00,meteohub,2013-01-30 04:44:00,
2013-01-30 04:49:00,40.5,36.3,29.10,SW,225,13.0,23.0,85,0.00,,,0.00,meteohub,2013-01-30 04:49:00,
2013-01-30 04:54:00,40.5,36.3,29.10,WSW,247,17.0,30.0,85,0.00,,,0.00,meteohub,2013-01-30 04:54:00,
2013-01-30 05:00:00,40.5,36.3,29.10,WSW,247,7.0,30.0,85,0.00,,,0.00,meteohub,2013-01-30 05:00:00,
2013-01-30 05:04:00,40.5,36.3,29.10,SW,225,19.0,30.0,85,0.00,,,0.00,meteohub,2013-01-30 05:04:00,
2013-01-30 05:05:00,40.5,36.3,29.10,WSW,247,13.0,24.0,85,0.00,,,0.00,meteohub,2013-01-30 05:05:00,
2013-01-30 05:06:00,40.5,36.3,29.10,WSW,247,13.0,24.0,85,0.00,,,0.00,meteohub,2013-01-30 05:06:00,
2013-01-30 05:11:00,40.5,36.7,29.10,WSW,247,13.0,24.0,86,0.00,,,0.00,meteohub,2013-01-30 05:11:00,
2013-01-30 05:16:00,40.3,36.5,29.10,WSW,247,18.0,23.0,86,0.00,,,0.00,meteohub,2013-01-30 05:16:00,
2013-01-30 05:22:00,40.3,36.5,29.10,SW,225,17.0,23.0,86,0.00,,,0.00,meteohub,2013-01-30 05:22:00,
2013-01-30 05:27:00,40.3,36.5,29.10,WSW,247,11.0,23.0,86,0.00,,,0.00,meteohub,2013-01-30 05:27:00,
2013-01-30 05:32:00,40.3,36.5,29.10,WSW,247,15.0,22.0,86,0.00,,,0.00,meteohub,2013-01-30 05:32:00,
2013-01-30 05:37:00,40.3,36.5,29.10,WSW,247,18.0,22.0,86,0.00,,,0.00,meteohub,2013-01-30 05:37:00,
2013-01-30 05:42:00,40.1,36.5,29.10,WSW,247,15.0,26.0,87,0.00,,,0.00,meteohub,2013-01-30 05:42:00,
2013-01-30 05:47:00,40.1,36.5,29.10,WSW,247,13.0,28.0,87,0.00,,,0.00,meteohub,2013-01-30 05:47:00,
2013-01-30 05:52:00,40.1,36.5,29.10,WSW,247,17.0,28.0,87,0.00,,,0.00,meteohub,2013-01-30 05:52:00,
2013-01-30 05:57:00,40.1,36.3,29.10,WSW,247,13.0,28.0,86,0.00,,,0.00,meteohub,2013-01-30 05:57:00,
2013-01-30 06:02:00,40.1,36.3,29.10,WSW,247,20.0,24.0,86,0.00,,,0.00,meteohub,2013-01-30 06:02:00,
2013-01-30 06:07:00,40.1,36.5,29.10,WSW,247,15.0,24.0,87,0.00,,,0.00,meteohub,2013-01-30 06:07:00,
2013-01-30 06:13:00,39.9,36.3,29.10,WSW,247,22.0,25.0,87,0.00,,,0.00,meteohub,2013-01-30 06:13:00,
2013-01-30 06:18:00,40.1,36.5,29.10,WSW,247,13.0,25.0,87,0.00,,,0.00,meteohub,2013-01-30 06:18:00,
2013-01-30 06:23:00,39.9,36.3,29.10,SW,225,15.0,25.0,87,0.00,,,0.00,meteohub,2013-01-30 06:23:00,
2013-01-30 06:28:00,39.9,36.3,29.10,WSW,247,14.0,25.0,87,0.00,,,0.00,meteohub,2013-01-30 06:28:00,
2013-01-30 06:33:00,39.9,36.3,29.10,SW,225,15.0,23.0,87,0.00,,,0.00,meteohub,2013-01-30 06:33:00,
2013-01-30 06:38:00,39.9,36.3,29.10,West,270,15.0,23.0,87,0.00,,,0.00,meteohub,2013-01-30 06:38:00,
2013-01-30 06:43:00,39.9,36.3,29.10,SW,225,18.0,22.0,87,0.00,,,0.00,meteohub,2013-01-30 06:43:00,
2013-01-30 06:48:00,39.9,36.3,29.10,WSW,247,10.0,21.0,87,0.00,,,0.00,meteohub,2013-01-30 06:48:00,
2013-01-30 06:54:00,39.9,36.3,29.10,WSW,247,13.0,22.0,87,0.00,,,0.00,meteohub,2013-01-30 06:54:00,
2013-01-30 06:59:00,39.9,36.7,29.10,WSW,247,13.0,22.0,88,0.00,,,0.00,meteohub,2013-01-30 06:59:00,
2013-01-30 07:04:00,39.9,36.7,29.10,WSW,247,19.0,23.0,88,0.00,,,0.00,meteohub,2013-01-30 07:04:00,
2013-01-30 07:09:00,40.1,37.0,29.10,WSW,247,19.0,24.0,89,0.00,,,0.00,meteohub,2013-01-30 07:09:00,
2013-01-30 07:14:00,40.3,37.2,29.10,WSW,247,12.0,27.0,89,0.00,,,0.00,meteohub,2013-01-30 07:14:00,
2013-01-30 07:19:00,40.3,37.6,29.10,WSW,247,12.0,27.0,90,0.00,,,0.00,meteohub,2013-01-30 07:19:00,
2013-01-30 07:24:00,40.5,37.8,29.10,WSW,247,13.0,27.0,90,0.00,,,0.00,meteohub,2013-01-30 07:24:00,
2013-01-30 07:29:00,40.5,37.8,29.10,WSW,247,18.0,23.0,90,0.00,,,0.00,meteohub,2013-01-30 07:29:00,
2013-01-30 07:34:00,40.1,37.4,29.10,WSW,247,16.0,25.0,90,0.00,,,0.00,meteohub,2013-01-30 07:34:00,
2013-01-30 07:40:00,39.9,37.2,29.10,WSW,247,17.0,25.0,90,0.00,,,0.00,meteohub,2013-01-30 07:40:00,
2013-01-30 07:45:00,39.9,37.2,29.10,WSW,247,11.0,24.0,90,0.00,,,0.00,meteohub,2013-01-30 07:45:00,
2013-01-30 07:50:00,39.7,37.0,29.10,WSW,247,15.0,24.0,90,0.00,,,0.00,meteohub,2013-01-30 07:50:00,
2013-01-30 07:55:00,39.7,37.4,29.10,SW,225,22.0,27.0,91,0.00,,,0.00,meteohub,2013-01-30 07:55:00,
2013-01-30 08:00:00,39.7,37.4,29.10,WSW,247,17.0,27.0,91,0.00,,,0.00,meteohub,2013-01-30 08:00:00,
2013-01-30 08:05:00,39.6,37.2,29.10,WSW,247,13.0,27.0,91,0.00,,,0.00,meteohub,2013-01-30 08:05:00,
2013-01-30 08:10:00,39.6,37.2,29.10,WSW,247,18.0,26.0,91,0.00,,,0.00,meteohub,2013-01-30 08:10:00,
2013-01-30 08:15:00,39.4,37.2,29.10,SW,225,23.0,26.0,92,0.01,,,0.01,meteohub,2013-01-30 08:15:00,
2013-01-30 08:20:00,39.2,36.9,29.10,WSW,247,22.0,26.0,91,0.01,,,0.01,meteohub,2013-01-30 08:20:00,
2013-01-30 08:25:00,39.0,36.7,29.10,West,270,23.0,25.0,91,0.01,,,0.01,meteohub,2013-01-30 08:25:00,
2013-01-30 08:31:00,38.8,36.7,29.10,WSW,247,17.0,24.0,92,0.01,,,0.01,meteohub,2013-01-30 08:31:00,
2013-01-30 08:36:00,38.8,36.7,29.10,WSW,247,15.0,24.0,92,0.01,,,0.01,meteohub,2013-01-30 08:36:00,
2013-01-30 08:41:00,39.0,37.2,29.10,WSW,247,20.0,24.0,93,0.01,,,0.01,meteohub,2013-01-30 08:41:00,
2013-01-30 08:46:00,39.2,37.4,29.13,WSW,247,18.0,24.0,93,0.02,,,0.02,meteohub,2013-01-30 08:46:00,
2013-01-30 08:51:00,39.0,37.4,29.13,West,270,27.0,31.0,94,0.03,,,0.03,meteohub,2013-01-30 08:51:00,
2013-01-30 08:56:00,38.7,36.9,29.13,WSW,247,15.0,31.0,93,0.04,,,0.04,meteohub,2013-01-30 08:56:00,
2013-01-30 09:01:00,38.5,36.3,29.13,WSW,247,15.0,31.0,92,0.04,,,0.04,meteohub,2013-01-30 09:01:00,
2013-01-30 09:06:00,38.1,35.8,29.13,WSW,247,10.0,31.0,91,0.04,,,0.04,meteohub,2013-01-30 09:06:00,
2013-01-30 09:11:00,38.1,35.8,29.13,SW,225,9.0,31.0,91,0.03,,,0.04,meteohub,2013-01-30 09:11:00,
2013-01-30 09:16:00,38.3,36.1,29.13,WSW,247,13.0,23.0,92,0.03,,,0.04,meteohub,2013-01-30 09:16:00,
2013-01-30 09:22:00,38.5,36.3,29.13,WSW,247,17.0,19.0,92,0.03,,,0.04,meteohub,2013-01-30 09:22:00,
2013-01-30 09:27:00,38.5,36.7,29.13,WSW,247,9.0,27.0,93,0.04,,,0.05,meteohub,2013-01-30 09:27:00,
2013-01-30 09:32:00,38.1,36.3,29.16,WSW,247,13.0,31.0,93,0.05,,,0.06,meteohub,2013-01-30 09:32:00,
2013-01-30 09:37:00,37.9,35.8,29.16,WSW,247,23.0,31.0,92,0.06,,,0.07,meteohub,2013-01-30 09:37:00,
2013-01-30 09:42:00,37.6,35.2,29.16,West,270,23.0,31.0,91,0.07,,,0.08,meteohub,2013-01-30 09:42:00,
2013-01-30 09:47:00,37.4,35.1,29.16,WSW,247,19.0,30.0,91,0.07,,,0.09,meteohub,2013-01-30 09:47:00,
2013-01-30 09:52:00,37.0,34.7,29.16,WSW,247,12.0,29.0,91,0.07,,,0.10,meteohub,2013-01-30 09:52:00,
2013-01-30 09:57:00,37.0,34.9,29.16,WSW,247,11.0,28.0,92,0.06,,,0.10,meteohub,2013-01-30 09:57:00,
2013-01-30 10:02:00,37.2,35.4,29.13,WSW,247,9.0,28.0,93,0.06,,,0.10,meteohub,2013-01-30 10:02:00,
2013-01-30 10:07:00,37.4,35.6,29.13,West,270,13.0,22.0,93,0.06,,,0.10,meteohub,2013-01-30 10:07:00,
2013-01-30 10:12:00,37.4,35.6,29.13,WSW,247,15.0,19.0,93,0.06,,,0.10,meteohub,2013-01-30 10:12:00,
2013-01-30 10:17:00,37.6,36.0,29.13,WSW,247,16.0,19.0,94,0.06,,,0.10,meteohub,2013-01-30 10:17:00,
2013-01-30 10:22:00,37.8,36.5,29.13,WSW,247,23.0,23.0,95,0.06,,,0.10,meteohub,2013-01-30 10:22:00,
2013-01-30 10:27:00,38.1,37.0,29.13,WSW,247,17.0,26.0,96,0.05,,,0.10,meteohub,2013-01-30 10:27:00,
2013-01-30 10:32:00,38.5,37.4,29.16,West,270,17.0,26.0,96,0.03,,,0.10,meteohub,2013-01-30 10:32:00,
2013-01-30 10:37:00,38.7,37.6,29.16,WSW,247,23.0,26.0,96,0.03,,,0.10,meteohub,2013-01-30 10:37:00,
2013-01-30 10:42:00,38.8,37.8,29.16,SW,225,17.0,26.0,96,0.02,,,0.10,meteohub,2013-01-30 10:42:00,
2013-01-30 10:47:00,39.2,38.1,29.16,WSW,247,10.0,26.0,96,0.01,,,0.10,meteohub,2013-01-30 10:47:00,
2013-01-30 10:52:00,39.2,38.1,29.16,WSW,247,15.0,26.0,96,0.00,,,0.10,meteohub,2013-01-30 10:52:00,
2013-01-30 10:58:00,39.4,38.3,29.16,WSW,247,8.0,24.0,96,0.00,,,0.10,meteohub,2013-01-30 10:58:00,
2013-01-30 11:03:00,39.4,38.3,29.16,WSW,247,10.0,24.0,96,0.00,,,0.10,meteohub,2013-01-30 11:03:00,
2013-01-30 11:08:00,39.6,38.5,29.16,SW,225,12.0,22.0,96,0.00,,,0.10,meteohub,2013-01-30 11:08:00,
2013-01-30 11:13:00,39.7,38.7,29.16,WSW,247,22.0,22.0,96,0.00,,,0.10,meteohub,2013-01-30 11:13:00,
2013-01-30 11:18:00,39.7,38.7,29.16,WSW,247,13.0,22.0,96,0.00,,,0.10,meteohub,2013-01-30 11:18:00,
2013-01-30 11:23:00,39.7,38.7,29.16,WSW,247,12.0,26.0,96,0.00,,,0.10,meteohub,2013-01-30 11:23:00,
2013-01-30 11:28:00,39.9,38.7,29.16,WSW,247,15.0,26.0,95,0.00,,,0.10,meteohub,2013-01-30 11:28:00,
2013-01-30 11:33:00,39.9,38.7,29.16,SW,225,13.0,26.0,95,0.00,,,0.10,meteohub,2013-01-30 11:33:00,
2013-01-30 11:38:00,39.9,38.7,29.16,WSW,247,19.0,25.0,95,0.00,,,0.10,meteohub,2013-01-30 11:38:00,
2013-01-30 11:44:00,39.9,38.3,29.16,WSW,247,13.0,26.0,94,0.00,,,0.10,meteohub,2013-01-30 11:44:00,
2013-01-30 11:49:00,40.1,38.5,29.16,WSW,247,15.0,26.0,94,0.00,,,0.10,meteohub,2013-01-30 11:49:00,
2013-01-30 11:54:00,40.1,38.5,29.16,WSW,247,16.0,26.0,94,0.00,,,0.10,meteohub,2013-01-30 11:54:00,
2013-01-30 11:59:00,39.9,38.1,29.16,WSW,247,13.0,25.0,93,0.01,,,0.11,meteohub,2013-01-30 11:59:00,
2013-01-30 12:04:00,39.7,37.6,29.16,WSW,247,19.0,25.0,92,0.01,,,0.11,meteohub,2013-01-30 12:04:00,
2013-01-30 12:09:00,39.6,37.4,29.16,WSW,247,18.0,25.0,92,0.01,,,0.11,meteohub,2013-01-30 12:09:00,
2013-01-30 12:14:00,39.4,37.0,29.16,WSW,247,14.0,25.0,91,0.01,,,0.11,meteohub,2013-01-30 12:14:00,
2013-01-30 12:19:00,39.4,37.0,29.16,WSW,247,15.0,25.0,91,0.01,,,0.11,meteohub,2013-01-30 12:19:00,
2013-01-30 12:24:00,39.6,37.2,29.16,SW,225,17.0,25.0,91,0.01,,,0.11,meteohub,2013-01-30 12:24:00,
2013-01-30 12:30:00,39.6,37.2,29.16,SW,225,16.0,25.0,91,0.01,,,0.11,meteohub,2013-01-30 12:30:00,
2013-01-30 12:35:00,39.7,37.0,29.16,WSW,247,26.0,28.0,90,0.01,,,0.11,meteohub,2013-01-30 12:35:00,
2013-01-30 12:40:00,39.7,37.0,29.16,WSW,247,20.0,28.0,90,0.01,,,0.11,meteohub,2013-01-30 12:40:00,
2013-01-30 12:46:00,39.7,37.0,29.18,WSW,247,16.0,28.0,90,0.01,,,0.11,meteohub,2013-01-30 12:46:00,
2013-01-30 12:51:00,39.9,37.2,29.18,WSW,247,25.0,27.0,90,0.01,,,0.11,meteohub,2013-01-30 12:51:00,
2013-01-30 12:56:00,39.9,37.2,29.18,WSW,247,15.0,27.0,90,0.00,,,0.11,meteohub,2013-01-30 12:56:00,
2013-01-30 13:01:00,40.1,37.4,29.18,WSW,247,19.0,28.0,90,0.00,,,0.11,meteohub,2013-01-30 13:01:00,
2013-01-30 13:06:00,40.3,37.9,29.18,SW,225,9.0,28.0,91,0.00,,,0.11,meteohub,2013-01-30 13:06:00,
2013-01-30 13:11:00,40.3,37.9,29.18,West,270,18.0,28.0,91,0.00,,,0.11,meteohub,2013-01-30 13:11:00,
2013-01-30 13:16:00,40.3,37.9,29.18,WSW,247,24.0,32.0,91,0.00,,,0.11,meteohub,2013-01-30 13:16:00,
2013-01-30 13:22:00,40.3,37.6,29.18,WSW,247,16.0,32.0,90,0.00,,,0.11,meteohub,2013-01-30 13:22:00,
2013-01-30 13:27:00,40.3,37.6,29.18,WSW,247,23.0,32.0,90,0.00,,,0.11,meteohub,2013-01-30 13:27:00,
2013-01-30 13:32:00,40.5,37.8,29.18,WSW,247,15.0,32.0,90,0.00,,,0.11,meteohub,2013-01-30 13:32:00,
2013-01-30 13:37:00,40.5,37.8,29.18,WSW,247,16.0,32.0,90,0.00,,,0.11,meteohub,2013-01-30 13:37:00,
2013-01-30 13:42:00,40.6,38.3,29.18,SW,225,18.0,32.0,91,0.00,,,0.11,meteohub,2013-01-30 13:42:00,
2013-01-30 13:47:00,40.6,38.3,29.18,WNW,292,20.0,26.0,91,0.00,,,0.11,meteohub,2013-01-30 13:47:00,
2013-01-30 13:52:00,41.0,38.3,29.18,SW,225,23.0,26.0,90,0.00,,,0.11,meteohub,2013-01-30 13:52:00,
2013-01-30 13:57:00,41.0,38.3,29.18,WSW,247,13.0,26.0,90,0.00,,,0.11,meteohub,2013-01-30 13:57:00,
2013-01-30 14:02:00,41.0,37.9,29.21,WSW,247,15.0,28.0,89,0.00,,,0.11,meteohub,2013-01-30 14:02:00,
2013-01-30 14:07:00,41.2,37.9,29.21,WSW,247,24.0,28.0,88,0.00,,,0.11,meteohub,2013-01-30 14:07:00,
2013-01-30 14:13:00,41.4,38.1,29.21,West,270,16.0,28.0,88,0.00,,,0.11,meteohub,2013-01-30 14:13:00,
2013-01-30 14:18:00,41.7,38.1,29.21,WSW,247,19.0,33.0,87,0.00,,,0.11,meteohub,2013-01-30 14:18:00,
2013-01-30 14:23:00,41.9,37.9,29.21,WSW,247,32.0,33.0,86,0.00,,,0.11,meteohub,2013-01-30 14:23:00,
2013-01-30 14:28:00,42.1,37.6,29.21,WSW,247,33.0,33.0,84,0.00,,,0.11,meteohub,2013-01-30 14:28:00,
2013-01-30 14:33:00,42.3,37.4,29.21,WSW,247,23.0,33.0,83,0.00,,,0.11,meteohub,2013-01-30 14:33:00,
2013-01-30 14:38:00,42.3,36.5,29.21,WSW,247,23.0,40.0,80,0.00,,,0.11,meteohub,2013-01-30 14:38:00,
2013-01-30 14:43:00,42.3,35.6,29.21,West,270,20.0,40.0,77,0.00,,,0.11,meteohub,2013-01-30 14:43:00,
2013-01-30 14:48:00,42.3,36.0,29.24,WSW,247,17.0,40.0,78,0.00,,,0.11,meteohub,2013-01-30 14:48:00,
2013-01-30 14:54:00,42.3,36.0,29.24,WSW,247,19.0,29.0,78,0.00,,,0.11,meteohub,2013-01-30 14:54:00,
2013-01-30 14:59:00,42.1,35.8,29.24,West,270,15.0,25.0,78,0.00,,,0.11,meteohub,2013-01-30 14:59:00,
2013-01-30 15:04:00,42.1,36.0,29.24,West,270,15.0,29.0,79,0.00,,,0.11,meteohub,2013-01-30 15:04:00,
2013-01-30 15:09:00,41.9,36.1,29.24,WSW,247,17.0,29.0,80,0.00,,,0.11,meteohub,2013-01-30 15:09:00,
2013-01-30 15:14:00,41.9,36.1,29.24,WSW,247,17.0,29.0,80,0.00,,,0.11,meteohub,2013-01-30 15:14:00,
2013-01-30 15:19:00,41.9,35.2,29.24,WSW,247,11.0,25.0,77,0.00,,,0.11,meteohub,2013-01-30 15:19:00,
2013-01-30 15:24:00,42.1,34.0,29.24,West,270,18.0,28.0,73,0.00,,,0.11,meteohub,2013-01-30 15:24:00,
2013-01-30 15:29:00,42.3,33.6,29.24,West,270,26.0,34.0,71,0.00,,,0.11,meteohub,2013-01-30 15:29:00,
2013-01-30 15:34:00,42.1,33.1,29.27,WNW,292,27.0,34.0,70,0.00,,,0.11,meteohub,2013-01-30 15:34:00,
2013-01-30 15:39:00,42.1,32.7,29.27,WSW,247,28.0,34.0,69,0.00,,,0.11,meteohub,2013-01-30 15:39:00,
2013-01-30 15:45:00,42.1,33.1,29.27,WSW,247,24.0,34.0,70,0.00,,,0.11,meteohub,2013-01-30 15:45:00,
2013-01-30 15:50:00,42.3,32.5,29.27,West,270,31.0,35.0,68,0.00,,,0.11,meteohub,2013-01-30 15:50:00,
2013-01-30 15:55:00,42.4,32.2,29.27,WSW,247,36.0,36.0,67,0.00,,,0.11,meteohub,2013-01-30 15:55:00,
2013-01-30 16:00:00,42.4,31.8,29.27,WNW,292,27.0,36.0,66,0.00,,,0.11,meteohub,2013-01-30 16:00:00,
2013-01-30 16:05:00,42.6,31.3,29.27,WSW,247,28.0,40.0,64,0.00,,,0.11,meteohub,2013-01-30 16:05:00,
2013-01-30 16:10:00,42.6,30.6,29.27,WSW,247,27.0,42.0,62,0.00,,,0.11,meteohub,2013-01-30 16:10:00,
2013-01-30 16:15:00,42.8,30.7,29.30,WSW,247,38.0,42.0,62,0.00,,,0.11,meteohub,2013-01-30 16:15:00,
2013-01-30 16:20:00,42.6,30.2,29.30,WSW,247,33.0,42.0,61,0.00,,,0.11,meteohub,2013-01-30 16:20:00,
2013-01-30 16:25:00,42.6,30.2,29.30,WSW,247,24.0,38.0,61,0.00,,,0.11,meteohub,2013-01-30 16:25:00,
2013-01-30 16:30:00,42.4,30.0,29.30,WNW,292,22.0,38.0,61,0.00,,,0.11,meteohub,2013-01-30 16:30:00,
2013-01-30 16:36:00,42.4,30.4,29.30,WSW,247,28.0,38.0,62,0.00,,,0.11,meteohub,2013-01-30 16:36:00,
2013-01-30 16:41:00,42.3,29.8,29.30,West,270,33.0,39.0,61,0.00,,,0.11,meteohub,2013-01-30 16:41:00,
2013-01-30 16:46:00,42.3,29.8,29.30,WSW,247,19.0,39.0,61,0.00,,,0.11,meteohub,2013-01-30 16:46:00,
2013-01-30 16:51:00,42.3,29.3,29.30,WNW,292,23.0,39.0,60,0.00,,,0.11,meteohub,2013-01-30 16:51:00,
2013-01-30 16:56:00,42.1,29.1,29.30,WNW,292,36.0,38.0,60,0.00,,,0.11,meteohub,2013-01-30 16:56:00,
2013-01-30 17:01:00,42.1,29.1,29.33,WSW,247,42.0,42.0,60,0.00,,,0.11,meteohub,2013-01-30 17:01:00,
2013-01-30 17:06:00,42.1,29.1,29.33,West,270,20.0,42.0,60,0.00,,,0.11,meteohub,2013-01-30 17:06:00,
2013-01-30 17:11:00,42.1,29.1,29.33,WNW,292,19.0,42.0,60,0.00,,,0.11,meteohub,2013-01-30 17:11:00,
2013-01-30 17:16:00,41.9,28.9,29.33,West,270,23.0,42.0,60,0.00,,,0.11,meteohub,2013-01-30 17:16:00,
2013-01-30 17:22:00,41.9,28.6,29.33,NW,315,25.0,33.0,59,0.00,,,0.11,meteohub,2013-01-30 17:22:00,
2013-01-30 17:27:00,41.9,28.9,29.33,West,270,23.0,33.0,60,0.00,,,0.11,meteohub,2013-01-30 17:27:00,
2013-01-30 17:32:00,41.7,28.9,29.36,WSW,247,32.0,33.0,60,0.00,,,0.11,meteohub,2013-01-30 17:32:00,
2013-01-30 17:37:00,41.7,29.3,29.36,West,270,30.0,32.0,61,0.00,,,0.11,meteohub,2013-01-30 17:37:00,
2013-01-30 17:42:00,41.7,29.3,29.36,WSW,247,25.0,32.0,61,0.00,,,0.11,meteohub,2013-01-30 17:42:00,
2013-01-30 17:47:00,41.9,28.9,29.36,WSW,247,27.0,35.0,60,0.00,,,0.11,meteohub,2013-01-30 17:47:00,
2013-01-30 17:52:00,41.9,29.5,29.36,WSW,247,32.0,35.0,61,0.00,,,0.11,meteohub,2013-01-30 17:52:00,
2013-01-30 17:57:00,42.1,29.7,29.36,West,270,26.0,40.0,61,0.00,,,0.11,meteohub,2013-01-30 17:57:00,
2013-01-30 18:02:00,42.1,30.0,29.39,WNW,292,27.0,40.0,62,0.00,,,0.11,meteohub,2013-01-30 18:02:00,
2013-01-30 18:07:00,42.1,30.4,29.39,NW,315,29.0,40.0,63,0.00,,,0.11,meteohub,2013-01-30 18:07:00,
2013-01-30 18:12:00,41.9,31.5,29.39,WSW,247,27.0,39.0,66,0.00,,,0.11,meteohub,2013-01-30 18:12:00,
2013-01-30 18:17:00,41.9,31.5,29.39,West,270,26.0,40.0,66,0.00,,,0.11,meteohub,2013-01-30 18:17:00,
2013-01-30 18:23:00,41.9,31.5,29.39,West,270,20.0,40.0,66,0.00,,,0.11,meteohub,2013-01-30 18:23:00,
2013-01-30 18:28:00,41.7,31.6,29.39,WNW,292,26.0,40.0,67,0.00,,,0.11,meteohub,2013-01-30 18:28:00,
2013-01-30 18:33:00,41.5,31.8,29.42,West,270,18.0,36.0,68,0.00,,,0.11,meteohub,2013-01-30 18:33:00,
2013-01-30 18:38:00,41.4,31.6,29.42,WNW,292,24.0,36.0,68,0.00,,,0.11,meteohub,2013-01-30 18:38:00,
2013-01-30 18:43:00,41.2,31.8,29.42,West,270,26.0,34.0,69,0.00,,,0.11,meteohub,2013-01-30 18:43:00,
2013-01-30 18:48:00,41.2,31.8,29.42,WNW,292,18.0,29.0,69,0.00,,,0.11,meteohub,2013-01-30 18:48:00,
2013-01-30 18:53:00,41.2,31.5,29.42,WSW,247,22.0,32.0,68,0.00,,,0.11,meteohub,2013-01-30 18:53:00,
2013-01-30 18:58:00,41.2,31.5,29.42,WNW,292,24.0,32.0,68,0.00,,,0.11,meteohub,2013-01-30 18:58:00,
2013-01-30 19:03:00,41.2,30.7,29.42,West,270,31.0,32.0,66,0.00,,,0.11,meteohub,2013-01-30 19:03:00,
2013-01-30 19:09:00,41.4,30.6,29.42,West,270,21.0,32.0,65,0.00,,,0.11,meteohub,2013-01-30 19:09:00,
2013-01-30 19:14:00,41.5,30.2,29.42,West,270,15.0,34.0,64,0.00,,,0.11,meteohub,2013-01-30 19:14:00,
2013-01-30 19:19:00,41.4,30.0,29.45,WSW,247,15.0,34.0,64,0.00,,,0.11,meteohub,2013-01-30 19:19:00,
2013-01-30 19:24:00,41.5,30.2,29.45,WNW,292,26.0,34.0,64,0.00,,,0.11,meteohub,2013-01-30 19:24:00,
2013-01-30 19:29:00,41.5,29.8,29.45,WNW,292,15.0,32.0,63,0.00,,,0.11,meteohub,2013-01-30 19:29:00,
2013-01-30 19:34:00,41.7,30.0,29.45,WNW,292,41.0,41.0,63,0.00,,,0.11,meteohub,2013-01-30 19:34:00,
2013-01-30 19:39:00,41.9,30.9,29.45,SW,225,24.0,48.0,65,0.00,,,0.11,meteohub,2013-01-30 19:39:00,
2013-01-30 19:44:00,41.4,32.4,29.45,WSW,247,17.0,50.0,70,0.00,,,0.11,meteohub,2013-01-30 19:44:00,
2013-01-30 19:50:00,41.0,32.7,29.45,WSW,247,21.0,50.0,72,0.00,,,0.11,meteohub,2013-01-30 19:50:00,
2013-01-30 19:55:00,40.6,33.1,29.45,WNW,292,18.0,37.0,74,0.00,,,0.11,meteohub,2013-01-30 19:55:00,
2013-01-30 20:00:00,40.5,33.1,29.48,NW,315,21.0,33.0,75,0.00,,,0.11,meteohub,2013-01-30 20:00:00,
2013-01-30 20:05:00,40.3,33.3,29.48,WNW,292,19.0,28.0,76,0.00,,,0.11,meteohub,2013-01-30 20:05:00,
2013-01-30 20:10:00,40.1,33.1,29.48,West,270,9.0,28.0,76,0.00,,,0.11,meteohub,2013-01-30 20:10:00,
2013-01-30 20:15:00,39.9,33.3,29.48,WSW,247,18.0,28.0,77,0.00,,,0.11,meteohub,2013-01-30 20:15:00,
2013-01-30 20:20:00,39.9,33.3,29.48,WSW,247,18.0,25.0,77,0.00,,,0.11,meteohub,2013-01-30 20:20:00,
2013-01-30 20:25:00,39.9,33.6,29.48,WSW,247,23.0,27.0,78,0.00,,,0.11,meteohub,2013-01-30 20:25:00,
2013-01-30 20:30:00,39.9,33.6,29.48,WSW,247,11.0,27.0,78,0.00,,,0.11,meteohub,2013-01-30 20:30:00,
2013-01-30 20:35:00,39.9,34.0,29.48,West,270,27.0,29.0,79,0.00,,,0.11,meteohub,2013-01-30 20:35:00,
2013-01-30 20:41:00,40.1,33.8,29.48,WSW,247,23.0,38.0,78,0.00,,,0.11,meteohub,2013-01-30 20:41:00,
2013-01-30 20:46:00,40.3,34.0,29.51,NW,315,27.0,38.0,78,0.00,,,0.11,meteohub,2013-01-30 20:46:00,
2013-01-30 20:51:00,40.3,34.0,29.51,WSW,247,21.0,38.0,78,0.00,,,0.11,meteohub,2013-01-30 20:51:00,
2013-01-30 20:56:00,40.3,34.3,29.51,WSW,247,26.0,33.0,79,0.00,,,0.11,meteohub,2013-01-30 20:56:00,
2013-01-30 21:01:00,40.3,34.3,29.51,WSW,247,24.0,33.0,79,0.00,,,0.11,meteohub,2013-01-30 21:01:00,
2013-01-30 21:06:00,40.3,34.3,29.51,West,270,17.0,33.0,79,0.00,,,0.11,meteohub,2013-01-30 21:06:00,
2013-01-30 21:11:00,40.3,34.3,29.51,WSW,247,19.0,31.0,79,0.00,,,0.11,meteohub,2013-01-30 21:11:00,
2013-01-30 21:16:00,40.3,34.3,29.54,WSW,247,16.0,31.0,79,0.00,,,0.11,meteohub,2013-01-30 21:16:00,
2013-01-30 21:21:00,40.3,34.0,29.54,WSW,247,13.0,31.0,78,0.00,,,0.11,meteohub,2013-01-30 21:21:00,
2013-01-30 21:26:00,40.1,33.8,29.54,WSW,247,12.0,27.0,78,0.00,,,0.11,meteohub,2013-01-30 21:26:00,
2013-01-30 21:32:00,39.7,33.4,29.54,WSW,247,11.0,26.0,78,0.00,,,0.11,meteohub,2013-01-30 21:32:00,
2013-01-30 21:37:00,39.7,33.8,29.54,WSW,247,15.0,23.0,79,0.00,,,0.11,meteohub,2013-01-30 21:37:00,
2013-01-30 21:42:00,39.7,34.2,29.54,West,270,21.0,22.0,80,0.00,,,0.11,meteohub,2013-01-30 21:42:00,
2013-01-30 21:47:00,39.6,34.2,29.54,WSW,247,11.0,23.0,81,0.00,,,0.11,meteohub,2013-01-30 21:47:00,
2013-01-30 21:52:00,39.4,34.0,29.54,WSW,247,13.0,23.0,81,0.00,,,0.11,meteohub,2013-01-30 21:52:00,
2013-01-30 21:57:00,39.4,34.0,29.54,SW,225,13.0,23.0,81,0.00,,,0.11,meteohub,2013-01-30 21:57:00,
2013-01-30 22:02:00,39.2,33.8,29.57,WSW,247,17.0,19.0,81,0.00,,,0.11,meteohub,2013-01-30 22:02:00,
2013-01-30 22:07:00,39.0,34.0,29.57,WSW,247,11.0,19.0,82,0.00,,,0.11,meteohub,2013-01-30 22:07:00,
2013-01-30 22:12:00,38.8,33.8,29.57,WSW,247,9.0,19.0,82,0.00,,,0.11,meteohub,2013-01-30 22:12:00,
2013-01-30 22:17:00,38.8,33.8,29.57,WSW,247,9.0,19.0,82,0.00,,,0.11,meteohub,2013-01-30 22:17:00,
2013-01-30 22:23:00,38.8,33.8,29.57,WSW,247,15.0,17.0,82,0.00,,,0.11,meteohub,2013-01-30 22:23:00,
2013-01-30 22:28:00,38.8,33.8,29.57,WSW,247,8.0,17.0,82,0.00,,,0.11,meteohub,2013-01-30 22:28:00,
2013-01-30 22:33:00,38.7,33.6,29.60,WSW,247,11.0,16.0,82,0.00,,,0.11,meteohub,2013-01-30 22:33:00,
2013-01-30 22:38:00,38.7,34.0,29.60,WNW,292,10.0,17.0,83,0.00,,,0.11,meteohub,2013-01-30 22:38:00,
2013-01-30 22:43:00,38.7,34.0,29.60,WNW,292,9.0,17.0,83,0.00,,,0.11,meteohub,2013-01-30 22:43:00,
2013-01-30 22:48:00,38.7,34.0,29.60,WSW,247,9.0,17.0,83,0.00,,,0.11,meteohub,2013-01-30 22:48:00,
2013-01-30 22:53:00,38.7,34.0,29.60,WNW,292,8.0,17.0,83,0.00,,,0.11,meteohub,2013-01-30 22:53:00,
2013-01-30 22:58:00,38.7,34.0,29.60,WSW,247,15.0,17.0,83,0.00,,,0.11,meteohub,2013-01-30 22:58:00,
2013-01-30 23:03:00,38.7,34.0,29.60,WSW,247,9.0,17.0,83,0.00,,,0.11,meteohub,2013-01-30 23:03:00,
2013-01-30 23:08:00,38.7,34.0,29.60,WNW,292,6.0,19.0,83,0.00,,,0.11,meteohub,2013-01-30 23:08:00,
2013-01-30 23:14:00,38.7,34.2,29.60,WSW,247,16.0,19.0,84,0.00,,,0.11,meteohub,2013-01-30 23:14:00,
2013-01-30 23:19:00,38.7,34.2,29.57,WSW,247,15.0,22.0,84,0.00,,,0.11,meteohub,2013-01-30 23:19:00,
2013-01-30 23:24:00,38.7,34.2,29.57,WSW,247,9.0,22.0,84,0.00,,,0.11,meteohub,2013-01-30 23:24:00,
2013-01-30 23:29:00,38.7,34.5,29.57,WSW,247,8.0,22.0,85,0.00,,,0.11,meteohub,2013-01-30 23:29:00,
2013-01-30 23:34:00,38.7,34.5,29.57,WSW,247,13.0,17.0,85,0.00,,,0.11,meteohub,2013-01-30 23:34:00,
2013-01-30 23:39:00,38.7,34.9,29.57,WSW,247,11.0,20.0,86,0.00,,,0.11,meteohub,2013-01-30 23:39:00,
2013-01-30 23:44:00,38.7,34.9,29.57,West,270,8.0,20.0,86,0.00,,,0.11,meteohub,2013-01-30 23:44:00,
2013-01-30 23:49:00,38.5,34.7,29.57,WSW,247,9.0,20.0,86,0.00,,,0.11,meteohub,2013-01-30 23:49:00,
2013-01-30 23:54:00,38.5,34.7,29.57,West,270,10.0,20.0,86,0.00,,,0.11,meteohub,2013-01-30 23:54:00,
2013-01-30 23:59:00,38.5,34.7,29.57,WSW,247,13.0,13.0,86,0.00,,,0.11,meteohub,2013-01-30 23:59:00,